This is the latest recevied weather packets stored in our database for station/object N7BTW-13. If no packets are shown the sender has not sent any weather packets the latest 10 day(s).
| Time | Temp. | Humidity | Pressure | Rain* | Wind** | Luminosity | Snow |
|---|---|---|---|---|---|---|---|
| 1777128607 | 3.89° C | 90% | 1013.6 hPa | 0 mm | - | - | - |
| 1777128008 | 3.33° C | 92% | 1013.6 hPa | 0 mm | - | - | - |
| 1777127407 | 2.78° C | 96% | 1013.6 hPa | 0 mm | - | - | - |
| 1777126808 | 2.22° C | 96% | 1013.7 hPa | 0 mm | - | - | - |
| 1777126207 | 2.22° C | 96% | 1013.6 hPa | 0 mm | - | - | - |
| 1777125609 | 1.67° C | 96% | 1013.5 hPa | 0 mm | - | - | - |
| 1777125007 | 1.67° C | 96% | 1013.5 hPa | 0 mm | - | - | - |
| 1777124406 | 1.67° C | 95% | 1013.4 hPa | 0 mm | - | - | - |
| 1777123807 | 1.67° C | 93% | 1013.4 hPa | 0 mm | - | - | - |
| 1777123207 | 1.67° C | 93% | 1013.4 hPa | 0 mm | - | - | - |
| 1777122607 | 1.67° C | 91% | 1013.3 hPa | 0 mm | - | - | - |
| 1777122008 | 1.67° C | 91% | 1013.3 hPa | 0 mm | - | - | - |
| 1777121411 | 1.67° C | 89% | 1013.2 hPa | 0 mm | - | - | - |
| 1777120806 | 2.22° C | 87% | 1013.3 hPa | 0 mm | - | - | - |
| 1777120206 | 2.22° C | 86% | 1013.3 hPa | 0 mm | - | - | - |
| 1777119608 | 2.78° C | 86% | 1013.3 hPa | 0 mm | - | - | - |
| 1777119007 | 2.78° C | 85% | 1013.3 hPa | 0 mm | - | - | - |
| 1777118409 | 3.33° C | 88% | 1013.4 hPa | 0 mm | - | - | - |
| 1777117808 | 3.33° C | 84% | 1013.4 hPa | 0 mm | - | - | - |
| 1777117207 | 3.33° C | 82% | 1013.4 hPa | 0 mm | - | - | - |
| 1777116608 | 3.89° C | 80% | 1013.4 hPa | 0 mm | - | - | - |
| 1777116009 | 3.89° C | 80% | 1013.5 hPa | 0 mm | - | - | - |
| 1777115407 | 4.44° C | 79% | 1013.5 hPa | 0 mm | - | - | - |
| 1777114807 | 4.44° C | 78% | 1013.5 hPa | 0 mm | - | - | - |
| 1777114207 | 4.44° C | 78% | 1013.5 hPa | 0 mm | - | - | - |
* Rain latest hour (hover to see other rain measurements)
** Current wind speed in m/s (hover to see current wind gust speed)